[[{"header":{"parameterUnit":"m.s-1","parameterCategory":1,"la1":30.2991,"la2":30.254,"lo1":-89.0895,"lo2":-89.0444,"dy":0.0017,"dx":0.0017,"nx":28,"ny":28,"refTime":"2024-08-25T21:00:00:Z","depth":0,"parameterNumber":2,"parameterNumberName":"U-component_of_WINDS"},"data":[0,0,0,0,0,0,0,0,0,0,0,0,0,0,0,0,0,0,0,0,0,0,0,0,0,0,0,0,0,0,0,0,0,0,0,0,0,0,0,0,0,0,0,0,0,0,0,0,0,0,0,0,0,0,0,0,0,0,-2.3891,-2.389,0,-2.3798,-2.3797,-2.3796,-2.3698,-2.3696,-2.3695,-2.3693,-2.36,-2.3599,-2.3598,0,0,0,0,0,0,0,0,0,0,0,0,0,-2.3986,-2.3985,-2.3891,-2.389,-2.3889,-2.3798,-2.3797,-2.3796,-2.3698,-2.3696,-2.3694,-2.3693,-2.36,-2.3599,-2.3598,0,0,0,0,0,0,0,0,0,0,0,0,0,-2.3925,-2.3985,-2.3892,-2.3829,-2.3823,-2.3799,-2.3797,-2.3795,-2.3698,-2.3696,-2.3694,-2.3692,-2.3601,-2.3599,-2.3597,-2.3628,0,0,-2.3592,-2.3591,0,0,0,0,0,0,0,0,-2.3928,-2.3921,-2.3839,-2.3833,-2.3826,-2.3757,-2.3796,-2.3739,-2.3699,-2.3745,-2.3693,-2.3691,-2.3654,-2.3648,-2.3635,-2.3624,-2.3619,-2.3592,-2.3591,-2.359,-2.3589,0,0,0,0,0,0,0,-2.3933,-2.3925,-2.3854,-2.3838,-2.383,-2.3807,-2.3795,-2.3785,-2.3713,-2.3741,-2.3734,-2.3724,-2.365,-2.3637,-2.3632,-2.3618,-2.3592,-2.359,-2.3589,-2.3588,-2.3629,-2.3631,0,0,0,0,0,0,-2.3946,-2.3929,-2.3857,-2.3852,-2.3873,-2.3807,-2.3794,-2.3782,-2.3712,-2.37,-2.3726,-2.372,-2.3641,-2.3634,-2.3628,-2.3661,-2.359,-2.3588,-2.3587,-2.3627,-2.363,-2.3632,0,0,0,0,0,0,-2.3949,-2.3941,-2.3861,-2.3888,-2.3876,-2.3807,-2.3794,-2.3781,-2.3767,-2.3701,-2.3688,-2.3726,-2.3639,-2.3631,-2.3629,-2.3656,-2.3587,-2.3586,-2.3625,-2.3628,-2.3631,-2.3726,0,0,0,0,0,0,-2.3952,-2.3942,-2.3952,-2.3889,-2.3875,-2.3863,-2.3795,-2.378,-2.3764,-2.3756,-2.3697,-2.3686,-2.3637,-2.3632,-2.3627,-2.3653,-2.3584,-2.3622,-2.3626,-2.363,-2.372,-2.3732,-2.3743,0,0,0,0,0,-2.3955,-2.3983,-2.3953,-2.3945,-2.3886,-2.3865,-2.3857,-2.38,-2.3767,-2.3777,-2.3735,-2.3687,-2.3654,-2.3633,-2.3626,-2.3652,-2.362,-2.3625,-2.363,-2.3715,-2.373,-2.3742,0,0,0,0,0,0,-2.4051,-2.3973,-2.394,-2.3947,-2.3913,-2.3848,-2.3859,-2.3817,-2.3791,-2.3784,-2.3715,-2.3703,-2.371,-2.368,-2.3658,-2.3679,-2.363,-2.3634,-2.3698,-2.3711,-2.3722,-2.373,-2.3583,0,0,0,0,0,-2.4073,-2.4061,-2.3994,-2.4007,-2.3992,-2.3929,-2.3917,-2.3876,-2.3838,-2.3824,-2.3781,-2.3747,-2.3728,-2.3718,-2.3697,-2.3715,-2.3702,-2.373,-2.3741,-2.375,-2.3755,-2.3764,-2.3776,-2.3648,-2.3648,-2.3648,0,0,-2.4118,-2.4074,-2.4071,-2.4025,-2.3994,-2.3985,-2.3917,-2.3909,-2.3902,-2.3822,-2.3818,-2.3786,-2.3743,-2.3752,-2.3754,-2.3728,-2.3788,-2.3757,-2.3765,-2.3764,-2.3771,-2.3783,-2.3794,-2.3651,-2.3651,-2.365,0,0,-2.4196,-2.4161,-2.4169,-2.4139,-2.4093,-2.4051,-2.4053,-2.3995,-2.397,-2.3965,-2.3906,-2.3896,-2.3866,-2.3838,-2.3821,-2.389,-2.3846,-2.3885,-2.3944,-2.3954,-2.3964,-2.3973,-2.3999,-2.401,-2.389,-2.389,-2.389,0,-2.4258,-2.424,-2.4178,-2.4175,-2.4157,-2.4085,-2.4093,-2.4068,-2.4018,-2.4008,-2.3979,-2.3941,-2.3907,-2.3909,-2.3927,-2.3914,-2.3916,-2.3892,-2.3968,-2.3976,-2.3983,-2.4007,-2.4017,-2.3895,-2.3895,-2.3894,-2.3894,0,-2.432,-2.4309,-2.4321,-2.4275,-2.4258,-2.4261,-2.4201,-2.4192,-2.4153,-2.4114,-2.4111,-2.4068,-2.4039,-2.4036,-2.3997,-2.4034,-2.4019,-2.398,-2.393,-2.4001,-2.4023,-2.4032,-2.3903,-2.3901,-2.3899,-2.3898,0,0,-2.4455,-2.4375,-2.4381,-2.436,-2.4304,-2.4295,-2.4295,-2.4266,-2.426,-2.4229,-2.4228,-2.4205,-2.4169,-2.4149,-2.4107,-2.4116,-2.4176,-2.4075,-2.4073,-2.4097,-2.4216,-2.4246,-2.4258,-2.4146,-2.4148,-2.4149,-2.422,0,-2.4524,-2.4519,-2.4464,-2.4475,-2.4465,-2.4397,-2.4397,-2.4364,-2.4329,-2.4316,-2.4277,-2.4262,-2.4215,-2.4203,-2.4208,-2.4168,-2.4199,-2.4161,-2.4147,-2.4147,-2.4161,-2.4269,-2.4301,-2.437,-2.4228,-2.4229,-2.423,0,-2.4604,-2.4577,-2.4588,-2.4534,-2.4527,-2.4529,-2.4498,-2.4486,-2.4448,-2.4422,-2.4401,-2.4353,-2.4351,-2.4304,-2.43,-2.4276,-2.4267,-2.4246,-2.4248,-2.4245,-2.4194,-2.4271,-2.439,-2.4402,-2.4243,-2.4242,-2.4241,0,-2.4704,-2.467,-2.4673,-2.4656,-2.4593,-2.4596,-2.4569,-2.4529,-2.4515,-2.4489,-2.448,-2.4455,-2.4441,-2.4423,-2.4371,-2.4341,-2.4375,-2.4322,-2.4354,-2.4356,-2.4365,-2.4366,-2.4486,-2.4357,-2.4357,-2.4357,-2.4357,0,-2.4787,-2.4797,-2.4717,-2.4718,-2.4728,-2.4665,-2.4676,-2.4643,-2.4608,-2.4603,-2.4542,-2.4539,-2.447,-2.446,-2.4419,-2.4424,-2.4418,-2.4398,-2.4387,-2.4404,-2.4407,-2.4397,-2.4392,-2.436,-2.4359,-2.4359,-2.4358,0,-2.49,-2.4847,-2.4845,-2.4785,-2.4771,-2.478,-2.473,-2.473,-2.4691,-2.4686,-2.4681,-2.462,-2.4605,-2.4551,-2.4522,-2.4495,-2.4514,-2.4492,-2.4527,-2.452,-2.4556,-2.4554,-2.4676,-2.469,-2.4551,-2.4553,-2.4554,0,-2.4958,-2.4963,-2.4905,-2.4897,-2.4873,-2.4862,-2.4848,-2.4787,-2.4775,-2.4733,-2.4739,-2.4719,-2.4699,-2.4678,-2.4633,-2.4611,-2.4589,-2.4634,-2.4586,-2.4603,-2.4592,-2.4593,-2.4594,-2.4645,-2.4646,-2.4648,-2.4649,0,-2.5066,-2.504,-2.5022,-2.4996,-2.4981,-2.4958,-2.4931,-2.4928,-2.486,-2.4851,-2.4834,-2.482,-2.4791,-2.4773,-2.4744,-2.4718,-2.4673,-2.4665,-2.4671,-2.4689,-2.471,-2.4701,-2.4557,-2.4662,-2.4661,-2.466,-2.4659,-2.4659,-2.5154,-2.5156,-2.5116,-2.5099,-2.5072,-2.5049,-2.5047,-2.5008,-2.4993,-2.4965,-2.493,-2.4919,-2.4882,-2.4838,-2.4816,-2.4807,-2.4782,-2.4792,-2.4794,-2.4798,-2.4807,-2.471,-2.4802,-2.4801,-2.4801,-2.48,-2.48,0,-2.526,-2.5231,-2.5216,-2.5181,-2.5168,-2.5126,-2.5095,-2.5087,-2.5078,-2.5047,-2.503,-2.5012,-2.4994,-2.4948,-2.4926,-2.4928,-2.4907,-2.4925,-2.4925,-2.492,-2.4829,-2.4827,-2.4942,-2.4942,-2.4942,-2.4942,-2.4942,-2.4942,-2.5314,-2.5317,-2.5287,-2.5277,-2.5248,-2.5236,-2.5222,-2.5201,-2.5176,-2.5159,-2.5144,-2.5114,-2.5077,-2.5052,-2.5035,-2.5022,-2.5018,-2.5042,-2.5023,-2.4939,-2.4926,-2.4913,-2.491,-2.5041,-2.5042,-2.5114,-2.5115,-2.5115]},{"header":{"parameterUnit":"m.s-1","parameterCategory":1,"la1":30.2991,"la2":30.254,"lo1":-89.0895,"lo2":-89.0444,"dy":0.0017,"dx":0.0017,"nx":28,"ny":28,"refTime":"2024-08-25T21:00:00:Z","depth":0,"parameterNumber":3,"parameterNumberName":"V-component_of_WINDS"},"data":[0,0,0,0,0,0,0,0,0,0,0,0,0,0,0,0,0,0,0,0,0,0,0,0,0,0,0,0,0,0,0,0,0,0,0,0,0,0,0,0,0,0,0,0,0,0,0,0,0,0,0,0,0,0,0,0,0,0,-0.2326,-0.2326,0,-0.2338,-0.2338,-0.2338,-0.2334,-0.2334,-0.2334,-0.2334,-0.2347,-0.2348,-0.2349,0,0,0,0,0,0,0,0,0,0,0,0,0,-0.2303,-0.2303,-0.2326,-0.2326,-0.2326,-0.2338,-0.2338,-0.2338,-0.2334,-0.2334,-0.2334,-0.2334,-0.2347,-0.2348,-0.2349,0,0,0,0,0,0,0,0,0,0,0,0,0,-0.2314,-0.2304,-0.2326,-0.2326,-0.2326,-0.2337,-0.2338,-0.2338,-0.2335,-0.2334,-0.2334,-0.2333,-0.2347,-0.2348,-0.2349,-0.2362,0,0,-0.2351,-0.2352,0,0,0,0,0,0,0,0,-0.2313,-0.2315,-0.2326,-0.2326,-0.2326,-0.2334,-0.2335,-0.2346,-0.2335,-0.2331,-0.2334,-0.2333,-0.2343,-0.2345,-0.2348,-0.2362,-0.2363,-0.2352,-0.2352,-0.2352,-0.2353,0,0,0,0,0,0,0,-0.2312,-0.2314,-0.2331,-0.2326,-0.2326,-0.2326,-0.2327,-0.2337,-0.2339,-0.2332,-0.2331,-0.2333,-0.2343,-0.2347,-0.2348,-0.2363,-0.2352,-0.2352,-0.2353,-0.2353,-0.239,-0.239,0,0,0,0,0,0,-0.2311,-0.2313,-0.233,-0.2331,-0.2318,-0.2327,-0.2328,-0.2332,-0.2339,-0.234,-0.2333,-0.2333,-0.2345,-0.2347,-0.2348,-0.2365,-0.2352,-0.2353,-0.2354,-0.2389,-0.239,-0.239,0,0,0,0,0,0,-0.2311,-0.2313,-0.233,-0.2322,-0.2324,-0.2327,-0.2332,-0.2332,-0.2336,-0.234,-0.2341,-0.2336,-0.2345,-0.2347,-0.2358,-0.2365,-0.2354,-0.2355,-0.2389,-0.2389,-0.239,-0.2397,0,0,0,0,0,0,-0.231,-0.2313,-0.2317,-0.2322,-0.2325,-0.2339,-0.2332,-0.2333,-0.2337,-0.2336,-0.2343,-0.2344,-0.2345,-0.2357,-0.2359,-0.2366,-0.2355,-0.2388,-0.2389,-0.239,-0.2396,-0.2398,-0.2399,0,0,0,0,0,-0.2309,-0.2319,-0.2317,-0.2319,-0.233,-0.2339,-0.2341,-0.2342,-0.2337,-0.2342,-0.2345,-0.2344,-0.2364,-0.2358,-0.2361,-0.2368,-0.2388,-0.2389,-0.239,-0.2396,-0.2398,-0.2399,0,0,0,0,0,0,-0.2315,-0.2319,-0.2318,-0.2329,-0.2334,-0.2339,-0.2345,-0.2343,-0.235,-0.2349,-0.235,-0.2352,-0.2364,-0.2367,-0.2361,-0.2381,-0.2375,-0.2377,-0.2379,-0.2381,-0.2382,-0.2382,-0.2356,0,0,0,0,0,-0.2317,-0.2324,-0.2328,-0.2337,-0.234,-0.2342,-0.2346,-0.2346,-0.2351,-0.2353,-0.2357,-0.2363,-0.2371,-0.2376,-0.2383,-0.2396,-0.2398,-0.2403,-0.2404,-0.2405,-0.2407,-0.2415,-0.2418,-0.2393,-0.2393,-0.2393,0,0,-0.2323,-0.2326,-0.233,-0.2338,-0.2342,-0.235,-0.2344,-0.2352,-0.2357,-0.2355,-0.2366,-0.2369,-0.2375,-0.2388,-0.2394,-0.2391,-0.2414,-0.2406,-0.2407,-0.2408,-0.2417,-0.2419,-0.2421,-0.2394,-0.2394,-0.2394,0,0,-0.2336,-0.2339,-0.2348,-0.2351,-0.2357,-0.2358,-0.236,-0.2366,-0.2367,-0.2378,-0.2377,-0.2384,-0.2397,-0.2402,-0.2406,-0.2422,-0.2421,-0.2424,-0.2432,-0.244,-0.2442,-0.2444,-0.2451,-0.2453,-0.2425,-0.2425,-0.2425,0,-0.2343,-0.2353,-0.2353,-0.2361,-0.2365,-0.2362,-0.2372,-0.2375,-0.2383,-0.2387,-0.2383,-0.24,-0.2404,-0.2418,-0.2422,-0.2425,-0.2428,-0.2424,-0.2442,-0.2444,-0.2445,-0.2452,-0.2454,-0.2426,-0.2426,-0.2426,-0.2426,0,-0.2361,-0.2369,-0.2375,-0.2382,-0.2387,-0.2396,-0.2397,-0.2402,-0.2402,-0.2404,-0.2416,-0.242,-0.2429,-0.2432,-0.2432,-0.2446,-0.2445,-0.2441,-0.2436,-0.2448,-0.2454,-0.2457,-0.2426,-0.2426,-0.2426,-0.2426,0,0,-0.2379,-0.2386,-0.2389,-0.2392,-0.2398,-0.2404,-0.2413,-0.2421,-0.2426,-0.2431,-0.2439,-0.245,-0.2448,-0.2452,-0.2453,-0.246,-0.2473,-0.2456,-0.2456,-0.246,-0.2491,-0.2495,-0.2498,-0.2472,-0.2473,-0.2473,-0.2491,0,-0.2395,-0.241,-0.241,-0.2424,-0.2432,-0.2429,-0.2437,-0.2442,-0.2444,-0.2451,-0.2454,-0.2462,-0.2457,-0.246,-0.2467,-0.247,-0.248,-0.2469,-0.2481,-0.2482,-0.2481,-0.2501,-0.2504,-0.2521,-0.2494,-0.2494,-0.2494,0,-0.2415,-0.242,-0.2436,-0.2441,-0.2444,-0.2451,-0.2459,-0.2465,-0.2471,-0.2472,-0.2477,-0.2477,-0.2487,-0.248,-0.2494,-0.2487,-0.2492,-0.2494,-0.2495,-0.2497,-0.249,-0.2505,-0.2527,-0.253,-0.2498,-0.2498,-0.2497,0,-0.2428,-0.244,-0.245,-0.2453,-0.2459,-0.2465,-0.2468,-0.2473,-0.2478,-0.2484,-0.2488,-0.2496,-0.25,-0.2507,-0.2509,-0.2503,-0.2524,-0.2517,-0.2526,-0.2526,-0.2532,-0.2532,-0.2556,-0.2533,-0.2533,-0.2532,-0.2532,0,-0.2446,-0.2456,-0.2457,-0.2464,-0.2475,-0.2474,-0.2486,-0.2488,-0.2493,-0.2501,-0.2499,-0.2506,-0.2508,-0.2516,-0.2517,-0.253,-0.2531,-0.2534,-0.2534,-0.2535,-0.2535,-0.2539,-0.2538,-0.2533,-0.2533,-0.2533,-0.2533,0,-0.2463,-0.2464,-0.2476,-0.2481,-0.2482,-0.249,-0.2495,-0.2502,-0.2503,-0.2513,-0.2516,-0.2519,-0.2528,-0.253,-0.2542,-0.2543,-0.2558,-0.2557,-0.2556,-0.2557,-0.2567,-0.2566,-0.2596,-0.26,-0.2573,-0.2573,-0.2573,0,-0.2475,-0.2483,-0.2488,-0.2493,-0.2496,-0.2504,-0.2509,-0.2509,-0.2515,-0.2522,-0.2528,-0.2537,-0.2545,-0.256,-0.2564,-0.2573,-0.2573,-0.2582,-0.2574,-0.2575,-0.2575,-0.2575,-0.2576,-0.2585,-0.2585,-0.2585,-0.2585,0,-0.2497,-0.2497,-0.2504,-0.2512,-0.2517,-0.2523,-0.2529,-0.2533,-0.2534,-0.254,-0.255,-0.2556,-0.2567,-0.2577,-0.2586,-0.2589,-0.2588,-0.2588,-0.2591,-0.2592,-0.2592,-0.2594,-0.2562,-0.2587,-0.2587,-0.2587,-0.2587,-0.2587,-0.2513,-0.252,-0.2525,-0.2533,-0.2537,-0.2543,-0.255,-0.2552,-0.256,-0.2569,-0.2568,-0.2579,-0.2585,-0.2597,-0.2602,-0.2611,-0.2608,-0.2612,-0.2613,-0.2614,-0.2616,-0.2589,-0.2612,-0.2612,-0.2612,-0.2612,-0.2612,0,-0.2536,-0.2539,-0.2546,-0.2554,-0.2561,-0.2558,-0.2564,-0.257,-0.2579,-0.2585,-0.2592,-0.2603,-0.2613,-0.2617,-0.2627,-0.2633,-0.2633,-0.2636,-0.2636,-0.2637,-0.2617,-0.2614,-0.2636,-0.2636,-0.2636,-0.2636,-0.2636,-0.2636,-0.2549,-0.2561,-0.2561,-0.2576,-0.2579,-0.2589,-0.2593,-0.2598,-0.2603,-0.2615,-0.2623,-0.2625,-0.2631,-0.2641,-0.2649,-0.2651,-0.2655,-0.2659,-0.266,-0.2641,-0.2639,-0.2636,-0.2634,-0.2659,-0.2659,-0.2679,-0.2679,-0.2679]}]]